When you browse on this site, cookies collect data to enhance your experience and personalize the content and advertising you see.
Visit our Privacy Policy to learn more. By continuing to use the site, you agree to this use of cookies and data.
  • în România
  • Lista ţărilor
  • Pe 7 zile
  • Temperatura apei
  • Meteo pe hartă
  • Widget-uri
  • user-avatar
    Intrare

    Meteo pe oră la Franceville

    Astăzi, 7 Iunie, Duminică

    Timp Temperatura Precipitaţii Vânt Presiune Umiditate
    00:00 +22°C° 0 mm 0 m/s 732 mmHg 94%
    01:00 +22°C° 0 mm 0 m/s 732 mmHg 94%
    02:00 +22°C° 0 mm 0 m/s 731 mmHg 95%
    03:00 +21°C° 0 mm 0 m/s 731 mmHg 96%
    04:00 +21°C° 0 mm 0 m/s 731 mmHg 96%
    05:00 +21°C° 0 mm 0 m/s 731 mmHg 95%
    06:00 +22°C° 0 mm 0 m/s 732 mmHg 94%
    07:00 +22°C° 0 mm 0 m/s 732 mmHg 92%
    08:00 +23°C° 0 mm 0 m/s 732 mmHg 86%
    09:00 +25°C° 0 mm 0 m/s 733 mmHg 79%
    10:00 +28°C° 0 mm 1 m/s 733 mmHg 73%
    11:00 +30°C° 0.1 mm 1 m/s 732 mmHg 67%
    12:00 +31°C° 0.1 mm 1 m/s 732 mmHg 62%
    13:00 +33°C° 0.1 mm 1 m/s 731 mmHg 56%
    14:00 +32°C° 0.6 mm 1 m/s 731 mmHg 60%
    15:00 +32°C° 0.6 mm 1 m/s 730 mmHg 64%
    16:00 +31°C° 0.6 mm 1 m/s 729 mmHg 68%
    17:00 +28°C° 1.3 mm 0 m/s 730 mmHg 74%
    18:00 +26°C° 1.3 mm 0 m/s 731 mmHg 81%
    19:00 +25°C° 1.3 mm 0 m/s 731 mmHg 87%
    20:00 +24°C° 1.5 mm 0 m/s 731 mmHg 89%
    21:00 +26°C° 1.5 mm 1 m/s 731 mmHg 91%
    22:00 +25°C° 1.5 mm 1 m/s 732 mmHg 93%
    23:00 +25°C° 0.5 mm 1 m/s 731 mmHg 94%

    Mâine, 8 Iunie, Luni

    Timp Temperatura Precipitaţii Vânt Presiune Umiditate
    00:00 +23°C° 0.5 mm 0 m/s 731 mmHg 95%
    01:00 +23°C° 0.5 mm 0 m/s 731 mmHg 96%
    02:00 +22°C° 0.7 mm 0 m/s 731 mmHg 96%
    03:00 +22°C° 0.7 mm 0 m/s 731 mmHg 96%
    04:00 +22°C° 0.7 mm 0 m/s 731 mmHg 96%
    05:00 +22°C° 0.9 mm 0 m/s 731 mmHg 96%
    06:00 +22°C° 0.9 mm 0 m/s 731 mmHg 96%
    07:00 +22°C° 0.9 mm 0 m/s 732 mmHg 96%
    08:00 +23°C° 0.3 mm 0 m/s 732 mmHg 96%
    09:00 +23°C° 0.3 mm 0 m/s 732 mmHg 95%
    10:00 +25°C° 0.3 mm 1 m/s 733 mmHg 95%
    11:00 +26°C° 0.4 mm 1 m/s 732 mmHg 90%
    12:00 +27°C° 0.4 mm 1 m/s 732 mmHg 86%
    13:00 +28°C° 0.4 mm 1 m/s 731 mmHg 81%
    14:00 +27°C° 0.9 mm 1 m/s 731 mmHg 85%
    15:00 +26°C° 0.9 mm 1 m/s 730 mmHg 89%
    16:00 +26°C° 0.9 mm 1 m/s 730 mmHg 93%
    17:00 +25°C° 0 mm 1 m/s 730 mmHg 94%
    18:00 +23°C° 0 mm 0 m/s 731 mmHg 95%
    19:00 +23°C° 0 mm 0 m/s 731 mmHg 95%
    20:00 +22°C° 0 mm 0 m/s 731 mmHg 96%
    21:00 +22°C° 0 mm 0 m/s 731 mmHg 97%
    22:00 +22°C° 0 mm 0 m/s 732 mmHg 98%
    23:00 +22°C° 0 mm 0 m/s 731 mmHg 98%

    Poimâine, 9 Iunie, Marţi

    Timp Temperatura Precipitaţii Vânt Presiune Umiditate
    00:00 +22°C° 0 mm 0 m/s 731 mmHg 98%
    01:00 +23°C° 0 mm 1 m/s 731 mmHg 98%
    02:00 +23°C° 0 mm 1 m/s 731 mmHg 97%
    03:00 +23°C° 0 mm 1 m/s 731 mmHg 97%
    04:00 +23°C° 0 mm 1 m/s 731 mmHg 96%
    05:00 +24°C° 0 mm 1 m/s 731 mmHg 96%
    06:00 +24°C° 0 mm 1 m/s 732 mmHg 95%
    07:00 +24°C° 0 mm 1 m/s 732 mmHg 95%
    08:00 +25°C° 0 mm 1 m/s 732 mmHg 89%
    09:00 +26°C° 0 mm 1 m/s 732 mmHg 84%
    10:00 +27°C° 0 mm 2 m/s 733 mmHg 78%
    11:00 +28°C° 0 mm 1 m/s 732 mmHg 74%
    12:00 +29°C° 0 mm 1 m/s 732 mmHg 70%
    13:00 +29°C° 0 mm 1 m/s 731 mmHg 67%
    14:00 +30°C° 0 mm 1 m/s 731 mmHg 65%
    15:00 +30°C° 0 mm 1 m/s 730 mmHg 63%
    16:00 +30°C° 0 mm 1 m/s 730 mmHg 62%
    17:00 +29°C° 0 mm 1 m/s 730 mmHg 68%
    18:00 +27°C° 0 mm 1 m/s 731 mmHg 75%
    19:00 +26°C° 0 mm 1 m/s 731 mmHg 81%
    20:00 +25°C° 0 mm 1 m/s 731 mmHg 82%
    21:00 +25°C° 0 mm 1 m/s 732 mmHg 84%
    22:00 +24°C° 0 mm 1 m/s 732 mmHg 85%
    23:00 +24°C° 0 mm 1 m/s 732 mmHg 86%

    10 Iunie, Miercuri

    Timp Temperatura Precipitaţii Vânt Presiune Umiditate
    00:00 +24°C° 0 mm 1 m/s 732 mmHg 87%
    01:00 +21°C° 0 mm 0 m/s 732 mmHg 88%
    02:00 +21°C° 0 mm 0 m/s 731 mmHg 88%
    03:00 +21°C° 0 mm 0 m/s 731 mmHg 89%
    04:00 +21°C° 0 mm 0 m/s 731 mmHg 90%
    05:00 +21°C° 0 mm 0 m/s 732 mmHg 89%
    06:00 +23°C° 0 mm 1 m/s 732 mmHg 89%
    07:00 +23°C° 0 mm 1 m/s 732 mmHg 88%
    08:00 +25°C° 0 mm 1 m/s 733 mmHg 81%
    09:00 +27°C° 0 mm 1 m/s 733 mmHg 74%
    10:00 +29°C° 0 mm 1 m/s 734 mmHg 66%
    11:00 +30°C° 0 mm 1 m/s 733 mmHg 60%
    12:00 +32°C° 0 mm 1 m/s 732 mmHg 55%
    13:00 +33°C° 0 mm 1 m/s 732 mmHg 49%
    14:00 +33°C° 0 mm 1 m/s 731 mmHg 49%
    15:00 +33°C° 0 mm 1 m/s 731 mmHg 50%
    16:00 +33°C° 0 mm 1 m/s 730 mmHg 50%
    17:00 +31°C° 0 mm 1 m/s 730 mmHg 58%
    18:00 +29°C° 0 mm 1 m/s 731 mmHg 65%
    19:00 +27°C° 0 mm 1 m/s 731 mmHg 72%
    20:00 +27°C° 0 mm 1 m/s 731 mmHg 76%
    21:00 +26°C° 0 mm 1 m/s 732 mmHg 80%
    22:00 +25°C° 0 mm 1 m/s 732 mmHg 83%
    23:00 +25°C° 0 mm 1 m/s 732 mmHg 85%

    11 Iunie, Joi

    Timp Temperatura Precipitaţii Vânt Presiune Umiditate
    00:00 +24°C° 0 mm 1 m/s 732 mmHg 87%
    01:00 +24°C° 0 mm 1 m/s 732 mmHg 89%
    02:00 +22°C° 0 mm 0 m/s 732 mmHg 89%
    03:00 +21°C° 0 mm 0 m/s 732 mmHg 90%
    04:00 +21°C° 0 mm 0 m/s 731 mmHg 91%
    05:00 +23°C° 0 mm 1 m/s 732 mmHg 89%
    06:00 +24°C° 0 mm 1 m/s 732 mmHg 88%
    07:00 +24°C° 0 mm 1 m/s 732 mmHg 86%
    08:00 +25°C° 0 mm 1 m/s 732 mmHg 80%
    09:00 +27°C° 0 mm 1 m/s 733 mmHg 74%
    10:00 +29°C° 0 mm 1 m/s 733 mmHg 68%
    11:00 +30°C° 0 mm 1 m/s 733 mmHg 65%
    12:00 +31°C° 0 mm 1 m/s 732 mmHg 61%
    13:00 +32°C° 0 mm 2 m/s 732 mmHg 57%
    14:00 +31°C° 0.4 mm 2 m/s 731 mmHg 60%
    15:00 +31°C° 0.4 mm 1 m/s 731 mmHg 62%
    16:00 +31°C° 0.4 mm 1 m/s 730 mmHg 64%
    17:00 +29°C° 0.8 mm 1 m/s 730 mmHg 72%
    18:00 +27°C° 0.8 mm 1 m/s 731 mmHg 81%
    19:00 +26°C° 0.8 mm 1 m/s 731 mmHg 89%
    20:00 +25°C° 0.1 mm 1 m/s 731 mmHg 90%
    21:00 +25°C° 0.1 mm 1 m/s 732 mmHg 92%
    22:00 +25°C° 0.1 mm 1 m/s 732 mmHg 93%
    23:00 +25°C° 0 mm 1 m/s 732 mmHg 94%

    12 Iunie, Vineri

    Timp Temperatura Precipitaţii Vânt Presiune Umiditate
    00:00 +24°C° 0 mm 1 m/s 732 mmHg 94%
    01:00 +22°C° 0 mm 0 m/s 732 mmHg 94%
    02:00 +24°C° 0 mm 1 m/s 731 mmHg 95%
    03:00 +23°C° 0 mm 1 m/s 731 mmHg 95%
    04:00 +23°C° 0 mm 1 m/s 731 mmHg 96%
    05:00 +23°C° 0 mm 1 m/s 731 mmHg 95%
    06:00 +23°C° 0 mm 1 m/s 731 mmHg 95%
    07:00 +23°C° 0 mm 1 m/s 732 mmHg 94%
    08:00 +25°C° 0 mm 1 m/s 732 mmHg 86%
    09:00 +26°C° 0 mm 1 m/s 732 mmHg 78%
    10:00 +28°C° 0 mm 1 m/s 733 mmHg 70%
    11:00 +30°C° 0 mm 1 m/s 732 mmHg 62%
    12:00 +32°C° 0 mm 1 m/s 731 mmHg 55%
    13:00 +33°C° 0 mm 0 m/s 731 mmHg 47%
    14:00 +32°C° 0 mm 0 m/s 730 mmHg 46%
    15:00 +32°C° 0 mm 0 m/s 730 mmHg 45%
    16:00 +32°C° 0 mm 0 m/s 729 mmHg 44%
    17:00 +30°C° 0 mm 0 m/s 729 mmHg 52%
    18:00 +28°C° 0 mm 0 m/s 729 mmHg 59%
    19:00 +26°C° 0 mm 0 m/s 729 mmHg 67%
    20:00 +25°C° 0 mm 0 m/s 730 mmHg 71%
    21:00 +25°C° 0 mm 0 m/s 731 mmHg 75%
    22:00 +24°C° 0 mm 0 m/s 731 mmHg 79%
    23:00 +26°C° 0 mm 1 m/s 731 mmHg 81%
    Arată mai mult